Bullhead City, AZ

2:52 AM MST on October 19, 2017 (GMT -0700)
Laughlin-Bullhead International

Weather History for KIFP - October, 2013

Change the Weather History Date:

Wednesday, October 16, 2013

  Actual Average Record
Temperature  
Mean Temperature 68 °F -  
Max Temperature 77 °F 86 °F 102 °F (1991)
Min Temperature 60 °F 64 °F 56 °F (1989)
Cooling Degree Days 4    
Growing Degree Days 18 (Base 50)    
Moisture  
Dew Point 26 °F    
Average Humidity 21    
Maximum Humidity 32    
Minimum Humidity 12    
Precipitation  
Precipitation 0.00 in - - ()
Sea Level Pressure  
Sea Level Pressure 30.07 in    
Wind  
Wind Speed 16 mph (North)    
Max Wind Speed 26 mph    
Max Gust Speed 32 mph    
Visibility 10 miles    
Events      
Averages and records for this station are not official NWS values.
T = Trace of Precipitation, MM = Missing Value Source: NWS Daily Summary

Daily Weather History Graph

Daily Weather History Graph

Search for Another Location

Airport or City:

Trip Planner

Search our weather history database for the weather conditions in past years. The results will help you decide how hot, cold, wet, or windy it might be!

Date:

Astronomy

Oct. 16, 2013 Rise Set
Actual Time 6:45 AM MST 6:01 PM MST
Civil Twilight 6:19 AM MST 6:27 PM MST
Nautical Twilight 5:50 AM MST 6:56 PM MST
Astronomical Twilight 5:20 AM MST 7:25 PM MST
Moon 4:40 PM MST (10/16) 4:22 AM MST (10/16)
Length of Visible Light 12h 07m
Length of Day
11h 16m
Waxing Gibbous, 94% of the Moon is Illuminated
Oct 16
Waxing Gibbous
Oct 18
Full
Oct 26
Last Quarter
Nov 3
New
Nov 9
First Quarter

Hourly Weather History & Observations

Time (MST) Temp. Dew Point Humidity Pressure Visibility Wind Dir Wind Speed Gust Speed Precip Events Conditions
12:15 AM 68.0 °F 32.0 °F 26% 30.05 in 10.0 mi North 15.0 mph - N/A   Clear
12:35 AM 68.0 °F 26.6 °F 21% 30.06 in 10.0 mi North 10.4 mph - N/A   Clear
12:55 AM 66.2 °F 24.8 °F 21% 30.07 in 10.0 mi North 12.7 mph - N/A   Clear
1:15 AM 66.2 °F 26.6 °F 23% 30.07 in 10.0 mi North 18.4 mph 24.2 mph N/A   Clear
1:35 AM 66.2 °F 26.6 °F 23% 30.07 in 10.0 mi North 20.7 mph 24.2 mph N/A   Clear
1:55 AM 66.2 °F 26.6 °F 23% 30.07 in 10.0 mi North 17.3 mph - N/A   Clear
2:15 AM 64.4 °F 26.6 °F 24% 30.06 in 10.0 mi NNE 16.1 mph - N/A   Clear
2:35 AM 64.4 °F 26.6 °F 24% 30.05 in 10.0 mi NNE 16.1 mph - N/A   Clear
2:55 AM 64.4 °F 26.6 °F 24% 30.05 in 10.0 mi North 15.0 mph 23.0 mph N/A   Clear
3:15 AM 64.4 °F 26.6 °F 24% 30.06 in 10.0 mi North 19.6 mph 26.5 mph N/A   Clear
3:35 AM 64.4 °F 26.6 °F 24% 30.06 in 10.0 mi North 13.8 mph - N/A   Clear
3:55 AM 64.4 °F 26.6 °F 24% 30.07 in 10.0 mi North 13.8 mph - N/A   Clear
4:15 AM 64.4 °F 26.6 °F 24% 30.07 in 10.0 mi North 16.1 mph - N/A   Clear
4:35 AM 62.6 °F 26.6 °F 26% 30.06 in 10.0 mi North 18.4 mph 21.9 mph N/A   Clear
4:55 AM 62.6 °F 26.6 °F 26% 30.06 in 10.0 mi North 21.9 mph 27.6 mph N/A   Clear
5:15 AM 62.6 °F 28.4 °F 27% 30.06 in 10.0 mi North 19.6 mph 24.2 mph N/A   Clear
5:35 AM 62.6 °F 28.4 °F 27% 30.07 in 10.0 mi North 20.7 mph 26.5 mph N/A   Clear
5:55 AM 62.6 °F 28.4 °F 27% 30.09 in 10.0 mi NNE 16.1 mph - N/A   Clear
6:15 AM 62.6 °F 30.2 °F 30% 30.10 in 10.0 mi North 15.0 mph - N/A   Clear
6:35 AM 62.6 °F 32.0 °F 32% 30.11 in 10.0 mi North 20.7 mph 26.5 mph N/A   Clear
6:55 AM 62.6 °F 30.2 °F 30% 30.12 in 10.0 mi NNE 17.3 mph - N/A   Clear
7:15 AM 62.6 °F 30.2 °F 30% 30.12 in 10.0 mi NNE 18.4 mph - N/A   Clear
7:35 AM 62.6 °F 30.2 °F 30% 30.13 in 10.0 mi NNE 19.6 mph 26.5 mph N/A   Clear
7:55 AM 62.6 °F 30.2 °F 30% 30.13 in 10.0 mi North 23.0 mph 29.9 mph N/A   Clear
8:15 AM 64.4 °F 28.4 °F 26% 30.14 in 10.0 mi North 23.0 mph 29.9 mph N/A   Clear
8:35 AM 64.4 °F 28.4 °F 26% 30.15 in 10.0 mi North 21.9 mph 26.5 mph N/A   Clear
8:55 AM 64.4 °F 28.4 °F 26% 30.15 in 10.0 mi North 26.5 mph 29.9 mph N/A   Clear
9:15 AM 66.2 °F 28.4 °F 24% 30.16 in 10.0 mi North 25.3 mph 32.2 mph N/A   Clear
9:35 AM 66.2 °F 28.4 °F 24% 30.16 in 10.0 mi North 25.3 mph 32.2 mph N/A   Clear
9:55 AM 66.2 °F 30.2 °F 26% 30.16 in 10.0 mi North 26.5 mph 31.1 mph N/A   Clear
10:15 AM 68.0 °F 28.4 °F 23% 30.16 in 10.0 mi North 24.2 mph 31.1 mph N/A   Clear
10:35 AM 68.0 °F 28.4 °F 23% 30.16 in 10.0 mi North 20.7 mph 28.8 mph N/A   Clear
10:55 AM 68.0 °F 28.4 °F 23% 30.15 in 10.0 mi North 21.9 mph 27.6 mph N/A   Clear
11:15 AM 69.8 °F 28.4 °F 21% 30.15 in 10.0 mi NNW 24.2 mph 29.9 mph N/A   Clear
11:35 AM 69.8 °F 28.4 °F 21% 30.14 in 10.0 mi North 24.2 mph - N/A   Clear
11:55 AM 71.6 °F 28.4 °F 20% 30.13 in 10.0 mi North 26.5 mph - N/A   Clear
12:15 PM 71.6 °F 28.4 °F 20% 30.12 in 10.0 mi North 24.2 mph - N/A   Clear
12:35 PM 73.4 °F 28.4 °F 19% 30.11 in 10.0 mi North 25.3 mph - N/A   Clear
12:55 PM 73.4 °F 28.4 °F 19% 30.10 in 10.0 mi North 21.9 mph 26.5 mph N/A   Clear
1:15 PM 73.4 °F 28.4 °F 19% 30.09 in 10.0 mi North 21.9 mph - N/A   Clear
1:35 PM 73.4 °F 28.4 °F 19% 30.08 in 10.0 mi North 18.4 mph - N/A   Clear
1:55 PM 75.2 °F 28.4 °F 18% 30.08 in 10.0 mi NNW 17.3 mph - N/A   Clear
2:15 PM 75.2 °F 26.6 °F 17% 30.07 in 10.0 mi NNW 19.6 mph - N/A   Clear
2:35 PM 75.2 °F 26.6 °F 17% 30.06 in 10.0 mi North 18.4 mph 21.9 mph N/A   Clear
2:55 PM 75.2 °F 26.6 °F 17% 30.05 in 10.0 mi NNW 18.4 mph - N/A   Clear
3:15 PM 77.0 °F 24.8 °F 14% 30.05 in 10.0 mi NNW 15.0 mph - N/A   Clear
3:35 PM 77.0 °F 23.0 °F 13% 30.04 in 10.0 mi North 16.1 mph - N/A   Clear
3:55 PM 77.0 °F 23.0 °F 13% 30.04 in 10.0 mi North 15.0 mph - N/A   Clear
4:15 PM 77.0 °F 23.0 °F 13% 30.03 in 10.0 mi North 16.1 mph - N/A   Clear
4:35 PM 77.0 °F 21.2 °F 12% 30.03 in 10.0 mi NNW 13.8 mph - N/A   Clear
4:55 PM 77.0 °F 23.0 °F 13% 30.02 in 10.0 mi North 13.8 mph - N/A   Clear
5:15 PM 75.2 °F 21.2 °F 13% 30.02 in 10.0 mi North 13.8 mph - N/A   Clear
5:35 PM 75.2 °F 23.0 °F 14% 30.02 in 10.0 mi North 12.7 mph - N/A   Clear
5:55 PM 75.2 °F 21.2 °F 13% 30.02 in 10.0 mi North 12.7 mph - N/A   Clear
6:15 PM 73.4 °F 23.0 °F 15% 30.02 in 10.0 mi North 10.4 mph - N/A   Clear
6:35 PM 73.4 °F 23.0 °F 15% 30.02 in 10.0 mi North 8.1 mph - N/A   Clear
6:55 PM 73.4 °F 23.0 °F 15% 30.03 in 10.0 mi North 8.1 mph - N/A   Clear
7:15 PM 71.6 °F 23.0 °F 16% 30.03 in 10.0 mi North 8.1 mph - N/A   Clear
7:35 PM 71.6 °F 23.0 °F 16% 30.03 in 10.0 mi NNE 5.8 mph - N/A   Clear
7:55 PM 68.0 °F 23.0 °F 18% 30.04 in 10.0 mi NE 4.6 mph - N/A   Clear
8:15 PM 68.0 °F 23.0 °F 18% 30.04 in 10.0 mi ENE 5.8 mph - N/A   Clear
8:35 PM 66.2 °F 23.0 °F 19% 30.04 in 10.0 mi NNE 8.1 mph - N/A   Clear
8:55 PM 68.0 °F 21.2 °F 17% 30.04 in 10.0 mi NNE 9.2 mph - N/A   Clear
9:15 PM 68.0 °F 21.2 °F 17% 30.04 in 10.0 mi NNE 10.4 mph - N/A   Clear
9:35 PM 68.0 °F 21.2 °F 17% 30.04 in 10.0 mi NNE 9.2 mph - N/A   Clear
9:55 PM 68.0 °F 21.2 °F 17% 30.04 in 10.0 mi North 5.8 mph - N/A   Clear
10:15 PM 68.0 °F 23.0 °F 18% 30.04 in 10.0 mi ENE 4.6 mph - N/A   Clear
10:35 PM 62.6 °F 23.0 °F 22% 30.05 in 10.0 mi East 6.9 mph - N/A   Clear
10:55 PM 62.6 °F 23.0 °F 22% 30.05 in 10.0 mi ENE 6.9 mph - N/A   Clear
11:15 PM 60.8 °F 23.0 °F 23% 30.04 in 10.0 mi NE 5.8 mph - N/A   Clear
11:35 PM 62.6 °F 23.0 °F 22% 30.04 in 10.0 mi NE 5.8 mph - N/A   Clear
11:55 PM 64.4 °F 23.0 °F 21% 30.04 in 10.0 mi NNE 5.8 mph - N/A   Clear